SIA802 WSSS-ZBAA

Flight info

Callsign SIA802
Flight time N/A
Altitude 35000
Route VMR6A VMR M771 DUDIS/K0926F350 M771 DAGAG/K0920F360 M771 DOSUT/N0495F360 M771 DULOP/N0499F350 M771 DUMOL/N0495F360 J103 BEKOL/K0920S1100 A461 YIN/K0917S1130 A461 ZHO/K0906S1160 B208 OBMEP/K0907S1130 W56 LEBUN/K0895S1160 W56 NUDKU/K0898S1130 W56 DUGEB DUGEB4A
Aircraft B77W/H-SDE1E2E3FGHIJ2J3J4J5M1RWXY/LB1D1

Departure

Time 2026-05-05 07:53
Airport Singapore Changi Airport (WSSS)

Arrival

Time N/A
Airport Beijing Capital International Airport (ZBAA)
Time Latitude Longitude Altitude Speed Heading
2026-05-05 07:16 1.35915 103.98628 37 ft 0 kts 162°
2026-05-05 07:39 1.35918 103.98627 37 ft 3 kts 162°
2026-05-05 07:39 1.35943 103.98619 35 ft 4 kts 162°
2026-05-05 07:39 1.35969 103.98611 35 ft 4 kts 167°
2026-05-05 07:39 1.35995 103.98607 34 ft 4 kts 183°
2026-05-05 07:40 1.36014 103.98610 34 ft 3 kts 199°
2026-05-05 07:40 1.36040 103.98619 35 ft 4 kts 201°
2026-05-05 07:40 1.36065 103.98629 35 ft 4 kts 203°
2026-05-05 07:40 1.36090 103.98640 36 ft 4 kts 204°
2026-05-05 07:41 1.36115 103.98651 36 ft 4 kts 204°
2026-05-05 07:41 1.36131 103.98658 35 ft 0 kts 202°
2026-05-05 07:43 1.36130 103.98658 35 ft 2 kts 202°
2026-05-05 07:43 1.36094 103.98642 37 ft 8 kts 205°
2026-05-05 07:44 1.36070 103.98596 37 ft 8 kts 270°
2026-05-05 07:44 1.36085 103.98541 38 ft 8 kts 292°
2026-05-05 07:44 1.36105 103.98488 38 ft 8 kts 277°
2026-05-05 07:44 1.36076 103.98441 38 ft 8 kts 212°
2026-05-05 07:45 1.36009 103.98411 37 ft 15 kts 202°
2026-05-05 07:45 1.35882 103.98357 37 ft 21 kts 202°
2026-05-05 07:45 1.35748 103.98301 38 ft 21 kts 202°
2026-05-05 07:45 1.35613 103.98245 37 ft 21 kts 202°
2026-05-05 07:46 1.35479 103.98188 38 ft 21 kts 202°
2026-05-05 07:46 1.35340 103.98130 38 ft 23 kts 202°
2026-05-05 07:46 1.35192 103.98068 38 ft 23 kts 202°
2026-05-05 07:46 1.35044 103.98006 38 ft 23 kts 202°
2026-05-05 07:47 1.34899 103.97945 38 ft 23 kts 203°
2026-05-05 07:47 1.34771 103.97897 37 ft 14 kts 183°
2026-05-05 07:47 1.34724 103.97942 37 ft 9 kts 114°
2026-05-05 07:47 1.34694 103.98012 37 ft 14 kts 113°
2026-05-05 07:48 1.34643 103.98134 37 ft 24 kts 112°
2026-05-05 07:48 1.34576 103.98293 51 ft 25 kts 112°
2026-05-05 07:48 1.34507 103.98458 47 ft 27 kts 113°
2026-05-05 07:48 1.34434 103.98625 37 ft 27 kts 114°
2026-05-05 07:49 1.34360 103.98797 38 ft 27 kts 112°
2026-05-05 07:49 1.34316 103.98884 38 ft 9 kts 139°
2026-05-05 07:49 1.34267 103.98887 38 ft 7 kts 200°
2026-05-05 07:49 1.34201 103.98860 38 ft 15 kts 204°
2026-05-05 07:50 1.34088 103.98812 38 ft 18 kts 203°
2026-05-05 07:50 1.33971 103.98764 38 ft 18 kts 203°
2026-05-05 07:50 1.33852 103.98714 36 ft 20 kts 203°
2026-05-05 07:50 1.33689 103.98645 37 ft 28 kts 202°
2026-05-05 07:51 1.33509 103.98570 37 ft 28 kts 201°
2026-05-05 07:51 1.33330 103.98495 37 ft 28 kts 203°
2026-05-05 07:51 1.33150 103.98419 38 ft 28 kts 202°
2026-05-05 07:51 1.33000 103.98359 37 ft 15 kts 193°
2026-05-05 07:52 1.32941 103.98403 37 ft 11 kts 113°
2026-05-05 07:52 1.32910 103.98476 37 ft 10 kts 113°
2026-05-05 07:52 1.32924 103.98519 37 ft 7 kts 24°
2026-05-05 07:52 1.33014 103.98558 38 ft 28 kts 23°
2026-05-05 07:53 1.33426 103.98731 36 ft 105 kts 23°
2026-05-05 07:53 1.34314 103.99106 40 ft 173 kts 23°
2026-05-05 07:53 1.35506 103.99618 503 ft 192 kts 25°
2026-05-05 07:53 1.36754 104.00146 1246 ft 199 kts 23°
2026-05-05 07:54 1.38035 104.00687 2027 ft 206 kts 22°
2026-05-05 07:54 1.39443 104.01278 2293 ft 233 kts 22°
2026-05-05 07:54 1.41011 104.01937 2708 ft 250 kts 22°
2026-05-05 07:54 1.42640 104.02623 3329 ft 259 kts 22°
2026-05-05 07:55 1.44326 104.03332 3945 ft 267 kts 22°
2026-05-05 07:55 1.46062 104.04062 4673 ft 273 kts 22°
2026-05-05 07:55 1.47823 104.04779 5404 ft 273 kts 17°
2026-05-05 07:55 1.49721 104.04920 5967 ft 279 kts 348°
2026-05-05 07:56 1.51527 104.04274 6664 ft 280 kts 333°
2026-05-05 07:56 1.53258 104.03354 7343 ft 283 kts 331°
2026-05-05 07:56 1.54997 104.02395 8005 ft 287 kts 331°
2026-05-05 07:56 1.56757 104.01420 8668 ft 291 kts 331°
2026-05-05 07:57 1.58545 104.00435 9335 ft 295 kts 331°
2026-05-05 07:57 1.60357 103.99444 9977 ft 299 kts 331°
2026-05-05 07:57 1.62203 103.98440 10452 ft 310 kts 332°
2026-05-05 07:57 1.64175 103.97372 10623 ft 333 kts 332°
2026-05-05 07:58 1.66282 103.96232 10795 ft 356 kts 332°
2026-05-05 07:58 1.68533 103.95016 11010 ft 377 kts 332°
2026-05-05 07:58 1.70871 103.93755 11561 ft 386 kts 332°
2026-05-05 07:58 1.73247 103.92472 12310 ft 390 kts 332°
2026-05-05 07:59 1.75667 103.91294 12887 ft 394 kts 342°
2026-05-05 07:59 1.78369 103.90859 13427 ft 396 kts 358°
2026-05-05 07:59 1.81153 103.90745 13959 ft 405 kts 358°
2026-05-05 07:59 1.83973 103.90612 14628 ft 408 kts 358°
2026-05-05 08:00 1.86827 103.90460 15354 ft 410 kts 358°
2026-05-05 08:00 1.89685 103.90297 16029 ft 414 kts 358°
2026-05-05 08:00 1.92580 103.90122 16655 ft 419 kts 358°
2026-05-05 08:00 1.95501 103.89941 17263 ft 423 kts 358°
2026-05-05 08:01 1.98465 103.89754 17876 ft 428 kts 358°
2026-05-05 08:01 2.01407 103.89568 18431 ft 431 kts 358°
2026-05-05 08:01 2.04417 103.89377 18963 ft 435 kts 358°
2026-05-05 08:01 2.07452 103.89184 19513 ft 438 kts 358°
2026-05-05 08:02 2.10509 103.88990 20049 ft 441 kts 358°
2026-05-05 08:02 2.13586 103.88796 20579 ft 444 kts 358°
2026-05-05 08:02 2.16689 103.88599 21102 ft 447 kts 358°
2026-05-05 08:02 2.19769 103.88405 21608 ft 451 kts 358°
2026-05-05 08:03 2.22911 103.88206 22094 ft 454 kts 358°
2026-05-05 08:03 2.26078 103.88005 22590 ft 458 kts 358°
2026-05-05 08:03 2.29266 103.87804 23079 ft 461 kts 358°
2026-05-05 08:03 2.32473 103.87601 23516 ft 464 kts 358°
2026-05-05 08:04 2.35716 103.87402 23894 ft 464 kts 359°
2026-05-05 08:04 2.38929 103.87689 24091 ft 467 kts 15°
2026-05-05 08:04 2.41934 103.88920 24398 ft 466 kts 33°
2026-05-05 08:04 2.44633 103.90698 24723 ft 467 kts 34°
2026-05-05 08:05 2.47367 103.92477 25059 ft 471 kts 34°
2026-05-05 08:05 2.50144 103.94244 25432 ft 473 kts 33°
2026-05-05 08:05 2.52944 103.96001 25810 ft 476 kts 33°
2026-05-05 08:05 2.55758 103.97754 26169 ft 478 kts 33°
2026-05-05 08:06 2.58604 103.99521 26518 ft 481 kts 33°
2026-05-05 08:06 2.61426 104.01272 26847 ft 484 kts 33°
2026-05-05 08:06 2.64295 104.03054 27169 ft 487 kts 33°
2026-05-05 08:06 2.67188 104.04852 27511 ft 490 kts 33°
2026-05-05 08:07 2.70086 104.06654 27815 ft 492 kts 33°
2026-05-05 08:07 2.73003 104.08469 28118 ft 495 kts 33°
2026-05-05 08:07 2.75951 104.10304 28411 ft 497 kts 33°
2026-05-05 08:07 2.78893 104.12135 28699 ft 500 kts 33°
2026-05-05 08:08 2.81818 104.13955 28968 ft 502 kts 33°
2026-05-05 08:08 2.84791 104.15806 29228 ft 504 kts 33°
2026-05-05 08:08 2.87779 104.17666 29482 ft 507 kts 33°
2026-05-05 08:08 2.90782 104.19535 29723 ft 509 kts 33°
2026-05-05 08:09 2.93790 104.21407 29967 ft 510 kts 33°
2026-05-05 08:09 2.96808 104.23286 30252 ft 509 kts 33°
2026-05-05 08:09 2.99813 104.25157 30589 ft 508 kts 33°
2026-05-05 08:09 3.02811 104.27024 30916 ft 507 kts 33°
2026-05-05 08:10 3.05802 104.28886 31232 ft 506 kts 33°
2026-05-05 08:10 3.08786 104.30763 31537 ft 505 kts 33°
2026-05-05 08:10 3.11756 104.32644 31838 ft 505 kts 33°
2026-05-05 08:10 3.14691 104.34498 32159 ft 504 kts 33°
2026-05-05 08:11 3.17671 104.36354 32484 ft 503 kts 32°
2026-05-05 08:11 3.20659 104.38200 32798 ft 503 kts 32°
2026-05-05 08:11 3.23642 104.40041 33100 ft 503 kts 32°
2026-05-05 08:11 3.26613 104.41877 33404 ft 502 kts 32°
2026-05-05 08:12 3.29585 104.43717 33720 ft 501 kts 32°
2026-05-05 08:12 3.32514 104.45533 34002 ft 501 kts 32°
2026-05-05 08:12 3.35475 104.47370 34296 ft 499 kts 32°
2026-05-05 08:12 3.38423 104.49200 34584 ft 498 kts 32°
2026-05-05 08:13 3.41369 104.51028 34756 ft 500 kts 32°
2026-05-05 08:13 3.44334 104.52868 34781 ft 502 kts 32°
2026-05-05 08:13 3.50244 104.56538 34811 ft 497 kts 32°
2026-05-05 08:14 3.56101 104.60177 34820 ft 494 kts 32°
2026-05-05 08:14 3.61935 104.63805 34820 ft 493 kts 32°
2026-05-05 08:15 3.66791 104.66825 34822 ft 493 kts 32°
2026-05-05 08:15 3.72644 104.70465 34823 ft 494 kts 32°
2026-05-05 08:16 3.78458 104.74082 34825 ft 496 kts 32°
2026-05-05 08:16 3.84325 104.77731 34821 ft 497 kts 32°
2026-05-05 08:17 3.90218 104.81400 34826 ft 498 kts 32°
2026-05-05 08:17 3.96076 104.85049 34827 ft 498 kts 32°
2026-05-05 08:18 4.01964 104.88719 34824 ft 498 kts 32°
2026-05-05 08:18 4.07851 104.92388 34824 ft 497 kts 32°
2026-05-05 08:19 4.13727 104.96051 34827 ft 497 kts 32°
2026-05-05 08:19 4.19594 104.99709 34827 ft 497 kts 32°
2026-05-05 08:20 4.25461 105.03361 34825 ft 496 kts 32°
2026-05-05 08:20 4.31329 105.07008 34826 ft 496 kts 32°
2026-05-05 08:21 4.37159 105.10633 34828 ft 496 kts 32°
2026-05-05 08:21 4.43036 105.14291 34827 ft 496 kts 32°
2026-05-05 08:22 4.48895 105.17938 34827 ft 496 kts 32°
2026-05-05 08:22 4.54721 105.21565 34825 ft 496 kts 32°
2026-05-05 08:23 4.60582 105.25215 34824 ft 496 kts 32°
2026-05-05 08:23 4.66447 105.28868 34825 ft 496 kts 32°
2026-05-05 08:24 4.72320 105.32527 34824 ft 496 kts 32°
2026-05-05 08:24 4.78181 105.36179 34824 ft 496 kts 32°
2026-05-05 08:25 4.83998 105.39835 34825 ft 496 kts 33°
2026-05-05 08:25 4.89827 105.43629 34824 ft 496 kts 34°
2026-05-05 08:26 4.95588 105.47406 34827 ft 496 kts 34°
2026-05-05 08:26 5.01378 105.51187 34828 ft 497 kts 33°
2026-05-05 08:27 5.07186 105.54969 34828 ft 497 kts 33°
2026-05-05 08:27 5.12954 105.58723 34824 ft 497 kts 33°
2026-05-05 08:28 5.18757 105.62501 34827 ft 497 kts 33°
2026-05-05 08:28 5.24553 105.66276 34824 ft 497 kts 33°
2026-05-05 08:29 5.30360 105.70059 34824 ft 497 kts 33°
2026-05-05 08:30 5.39059 105.75727 34825 ft 497 kts 33°
2026-05-05 08:30 5.44815 105.79479 34827 ft 497 kts 33°
2026-05-05 08:31 5.50607 105.83256 34825 ft 496 kts 33°
2026-05-05 08:31 5.56405 105.87037 34828 ft 497 kts 33°
2026-05-05 08:32 5.62199 105.90816 34823 ft 497 kts 33°
2026-05-05 08:32 5.68010 105.94608 34826 ft 497 kts 33°
2026-05-05 08:33 5.73804 105.98388 34829 ft 497 kts 33°
2026-05-05 08:33 5.79603 106.02174 34825 ft 497 kts 33°
2026-05-05 08:34 5.85358 106.05932 34826 ft 497 kts 33°
2026-05-05 08:34 5.91163 106.09723 34824 ft 496 kts 33°
2026-05-05 08:35 5.96958 106.13509 34824 ft 496 kts 33°
2026-05-05 08:35 6.02710 106.17268 34825 ft 496 kts 33°
2026-05-05 08:36 6.08496 106.21050 34825 ft 495 kts 33°
2026-05-05 08:36 6.14274 106.24827 34823 ft 495 kts 33°
2026-05-05 08:37 6.20042 106.28599 34825 ft 495 kts 33°
2026-05-05 08:37 6.25816 106.32376 34824 ft 494 kts 33°
2026-05-05 08:38 6.31576 106.36145 34827 ft 494 kts 33°
2026-05-05 08:38 6.37330 106.39910 34827 ft 493 kts 33°
2026-05-05 08:39 6.43079 106.43674 34828 ft 493 kts 33°
2026-05-05 08:39 6.48782 106.47409 34826 ft 492 kts 33°
2026-05-05 08:40 6.54515 106.51164 34827 ft 491 kts 33°
2026-05-05 08:40 6.60239 106.54914 34828 ft 490 kts 33°
2026-05-05 08:41 6.65958 106.58663 34827 ft 490 kts 33°
2026-05-05 08:41 6.71683 106.62416 34827 ft 490 kts 33°
2026-05-05 08:42 6.77397 106.66163 34824 ft 490 kts 33°
2026-05-05 08:42 6.83109 106.69910 34826 ft 490 kts 33°
2026-05-05 08:43 6.88830 106.73665 34824 ft 490 kts 33°
2026-05-05 08:43 6.94516 106.77397 34824 ft 490 kts 33°
2026-05-05 08:44 7.00242 106.81157 34825 ft 490 kts 33°
2026-05-05 08:44 7.05952 106.84910 34827 ft 491 kts 34°
2026-05-05 08:45 7.11675 106.88676 34825 ft 491 kts 34°
2026-05-05 08:45 7.17376 106.92429 34825 ft 491 kts 33°
2026-05-05 08:46 7.23095 106.96196 34826 ft 491 kts 33°